Location: Friaudour
(46.0460°N, 1.2873°E)
Time: 21:09:57
(UTC+00:00)

SL-8 R/B - Pass Details

Date: 14 July 2020
Orbit: 656 x 667 km, 48.4° (Epoch: 14 August)

Event Time Altitude Azimuth Distance (km) Brightness Sun altitude
Rises 03:24:40 0° 274° (W) 2,997 6.7 -8.1°
Reaches altitude 10° 03:27:02 10° 277° (W) 2,083 5.9 -7.8°
Maximum altitude 03:31:49 65° 360° (N) 731 4.1 -7.2°
Drops below altitude 10° 03:36:35 10° 82° (E) 2,076 7.3 -6.6°
Sets 03:38:57 0° 86° (E) 2,986 8.1 -6.3°
